Weather in Trinec

Czech Republic     49°41′04″N   18°39′57″E
temp.,
°C
wind,
m/s
gust,
m/s
humid.,
%
clouds,
%
prec.,
mm/h
press.,
hPa
HPBL,
m
27 february, sat
sat2701:00+3nw2595100 4.7 1029440
04:00+3nw3793100 0.5 1029571
07:00+3nw3792100 0.6 1030540
10:00+3nw3789100 0.1 1031604
13:00+3nw3686100 0.1 1032625
16:00+3nnw3685100 0.0 1032651
19:00+2nnw2688100 0.1 1034498
22:00+1nw2489100 0.1 1035355
28 february, sun
sun2801:00+1nw2593100 0.1 1036365
04:00+1nnw2494100 0.1 1035345
07:00+1nw1392100 0.1 1035227
10:00+2nnw2381100 0.1 1035505
13:00+5nw126676 0.1 1034685
16:00+5w12620 0.0 1032650
19:00+2ssw12730 0.0 103324
22:00+3w127961 0.0 103340
1 march, mon
mon101:00+3nnw259680 0.1 1034318
04:00+2nne249597 0.0 1033205
07:00+1ne129787 0.1 1034136
10:00+3nne1287100 0.0 1036311
13:00+5ne127588 0.0 1036595
16:00+6nne117435 0.0 1034547
19:00+2ese129018 0.0 103523
22:00+1sse22900 0.0 103623
2 march, tue
tue201:00+1s22880 0.0 103527
04:00+1s23860 0.0 103432
07:00+1s22830 0.0 103437
10:00+7sw13590 0.0 1034333
13:00+10w23500 0.0 1033612
16:00+9wnw12600 0.0 1032184
19:00+5s22760 0.0 103223
22:00+3s22750 0.0 103325
3 march, wed
wed301:00+2s22760 0.0 103326
04:00+1s23780 0.0 103227
07:00+1s23780 0.0 103235
10:00+8sw12600 0.0 1031367
13:00+11w23530 0.0 1029890
16:00+9wnw346412 0.0 1028525
19:00+5ssw22816 0.0 102838
22:00+4s23850 0.0 102830